Regional Weather Roundup
Issued by NWS

Home | Current Version | Previous Version | Graphics & Text | Print | Product List | Glossary On
Versions: 1 2 3 4 5 6 7 8 9 10 11 12 13 14 15 16 17 18 19 20 21 22 23 24 25 26 27 28 29 30 31 32 33 34 35 36 37 38 39 40 41 42 43 44 45 46 47 48 49 50
000
ASUS43 KIND 201759
RWRIN

WEATHER ROUNDUP FOR INDIANA
NATIONAL WEATHER SERVICE INDIANAPOLIS IN
200 PM EDT SAT SEP 20 2014

NOTE: "FAIR" INDICATES FEW OR NO CLOUDS BELOW 12,000 FEET WITH NO
SIGNIFICANT WEATHER AND/OR OBSTRUCTIONS TO VISIBILITY.

* - STATION DOES NOT REPORT WEATHER SUCH AS PRECIPITATION OR FOG.

+ - STATION NOT QUALITY CONTROLLED BY THE NATIONAL WEATHER SERVICE.
    USE DATA WITH CAUTION...ESPECIALLY DEWPOINT AND RELATIVE
    HUMIDITY OBSERVATIONS.

INZ001>003-010>013-019-020-201900-
NORTHWEST INDIANA

CITY           SKY/WX    TMP DP  RH WIND       PRES   REMARKS
GARY /AIRPORT/ PTSUNNY   81  64  57 SW18G30   29.86F
VALPARAISO     MOSUNNY   78  64  61 SW16      29.89S
6HR MIN TEMP:  57; 6HR MAX TEMP:  79;


$$

LMZ046-743>745-201900-
SOUTHERN LAKE MICHIGAN

STATION/POSITION TIME  TEMP WIND        PRES
                       AIR  DIR/SP/G
                 (UTC) (F)  (DEG/KT/KT) (MB)
MICHIGAN CITY    1700   74  190/ 18/ 22   N/A

$$

INZ004-005-014>016-021>024-201900-
NORTH CENTRAL INDIANA

CITY           SKY/WX    TMP DP  RH WIND       PRES   REMARKS
GOSHEN         SUNNY     79  63  57 SW22G30   29.89F
6HR MIN TEMP:  59; 6HR MAX TEMP:  79;

SOUTH BEND     PTSUNNY   79  64  60 SW18G24   29.88F
6HR MIN TEMP:  58; 6HR MAX TEMP:  80;

WARSAW +       SUNNY     77  63  61 SW13G22   29.91F

$$

INZ006>009-017-018-025>027-201900-
NORTHEAST INDIANA

CITY           SKY/WX    TMP DP  RH WIND       PRES   REMARKS
ANGOLA *+      SUNNY     81  73  78 SW16      29.91F
FORT WAYNE     PTSUNNY   77  63  61 SW17G29   29.94F
6HR MIN TEMP:  54; 6HR MAX TEMP:  77;


$$

INZ028-029-035-036-043>045-051>053-201900-
WEST CENTRAL INDIANA

CITY           SKY/WX    TMP DP  RH WIND       PRES   REMARKS
GREENCASTLE +  PTSUNNY   75  64  69 S9        30.00F
LAFAYETTE      PTSUNNY   78  64  61 S14G23    29.94F
6HR MIN TEMP:  55; 6HR MAX TEMP:  78;

TERRE HAUTE    PTSUNNY   79  66  64 SW14      29.99F
6HR MIN TEMP:  52; 6HR MAX TEMP:  79;


$$

INZ030>032-037>040-046>048-054>057-064-065-201900-
CENTRAL INDIANA

CITY           SKY/WX    TMP DP  RH WIND       PRES   REMARKS
ANDERSON       MOSUNNY   75  59  57 SW15G21   30.00F
COLUMBUS       MOSUNNY   77  66  69 SW14      30.03F
INDIANAPOLIS   NOT AVBL
-EAGLE CREEK   PTSUNNY   78  61  55 SW12G18   29.98F
6HR MIN TEMP:  54; 6HR MAX TEMP:  78;

KOKOMO *+      PTSUNNY   79  63  57 SW20G26   29.95F
MT COMFORT *+  PTSUNNY   77  54  44 SW10      30.00F
SHELBYVILLE    PTSUNNY   80  62  54 S20G26    30.00F
6HR MIN TEMP:  58; 6HR MAX TEMP:  80;


$$

INZ033-034-041-042-049-050-058-059-201900-
EAST CENTRAL INDIANA

CITY           SKY/WX    TMP DP  RH WIND       PRES   REMARKS
MUNCIE         PTSUNNY   77  60  55 SW13G20   29.97F
6HR MIN TEMP:  59; 6HR MAX TEMP:  77;


$$

INZ060-061-067>069-081>083-085>088-201900-
SOUTHWEST INDIANA

CITY           SKY/WX    TMP DP  RH WIND       PRES   REMARKS
EVANSVILLE     MOSUNNY   84  65  52 SW15      30.04F
6HR MIN TEMP:  59; 6HR MAX TEMP:  84;


$$

INZ062-063-066-070>080-084-089>092-201900-
SOUTH CENTRAL AND SOUTHEAST INDIANA

CITY           SKY/WX    TMP DP  RH WIND       PRES   REMARKS
BLOOMINGTON    PTSUNNY   77  64  64 SW10      30.02F
6HR MIN TEMP:  51; 6HR MAX TEMP:  79; 6HR PCP: TRACE;


$$




USA.gov is the U.S. government's official web portal to all federal, state and local government web resources and services.